{"data":{"norad_id":57204,"intl_designator":"2023-091AQ","name":"SITRO-AIS 12 (SMIRENNIY)","alt_names":[],"object_type":"PAYLOAD","status":"ACTIVE","operator":null,"country":"CIS","launch_date":"2023-06-27","launch_site_code":"VOSTO","launch_vehicle":null,"mission":null,"orbit_class":"UNKNOWN","rcs_meters":null,"size_class":null,"mass_kg":null,"dimensions":null,"purposes":["tech_demo"],"wikipedia_slug":null,"has_3d_model":false,"image_url":null,"decayed_at":null,"tle_current":{"epoch":"2026-09-19T22:26:22.601184Z","epoch_age_seconds":63339,"freshness":"FRESH","line1":"1 57204U 23091AQ  26262.93498381  .00015869  00000+0  37799-3 0  9992","line2":"2 57204  97.5002 336.1051 0007025  89.5441 270.6610 15.41661679179350","mean_motion":15.41661679,"eccentricity":0.0007025,"inclination_deg":97.5002,"raan_deg":336.1051,"arg_perigee_deg":89.5441,"mean_anomaly_deg":270.661,"bstar":0.00037799,"rev_number":17935,"period_min":93.40570759559,"perigee_km":436.41417620696,"apogee_km":445.9953513851,"semimajor_km":6819.341763796,"source":"CELESTRAK","updated_at":"2026-09-20T09:00:48.037047Z"}}}